When you browse on this site, cookies collect data to enhance your experience and personalize the content and advertising you see.
Visit our Privacy Policy to learn more. By continuing to use the site, you agree to this use of cookies and data.
  • In Switzerland
  • List of Countries
  • For 7 days
  • Water Temperature
  • Satellite Maps
  • Weather Map
  • Weather Widgets
  • user-avatar
    Login

    Hourly Weather Pleskachi

    Today, 19 February, Tuesday

    Time Temperature Precipitation Wind Pressure Humidity
    00:00 -2°C° 0 mm 1 mps 760 mmHg 86%
    01:00 -2°C° 0 mm 1 mps 760 mmHg 86%
    02:00 -6°C° 0 mm 1 mps 760 mmHg 87%
    03:00 -6°C° 0 mm 1 mps 760 mmHg 87%
    04:00 -7°C° 0 mm 1 mps 760 mmHg 87%
    05:00 -7°C° 0 mm 1 mps 760 mmHg 87%
    06:00 -7°C° 0 mm 2 mps 760 mmHg 88%
    07:00 -7°C° 0 mm 2 mps 760 mmHg 88%
    08:00 -7°C° 0 mm 2 mps 760 mmHg 89%
    09:00 -6°C° 0 mm 2 mps 760 mmHg 88%
    10:00 -5°C° 0 mm 3 mps 760 mmHg 88%
    11:00 -4°C° 0 mm 3 mps 760 mmHg 87%
    12:00 -2°C° 0 mm 3 mps 759 mmHg 88%
    13:00 -1°C° 0 mm 3 mps 759 mmHg 88%
    14:00 -2°C° 0 mm 4 mps 759 mmHg 88%
    15:00 -2°C° 0 mm 4 mps 758 mmHg 88%
    16:00 -3°C° 0 mm 4 mps 757 mmHg 88%
    17:00 -3°C° 0 mm 4 mps 757 mmHg 88%
    18:00 -3°C° 0 mm 4 mps 757 mmHg 86%
    19:00 -4°C° 0 mm 4 mps 756 mmHg 84%
    20:00 -4°C° 0 mm 4 mps 756 mmHg 82%
    21:00 -5°C° 0 mm 5 mps 755 mmHg 82%
    22:00 -4°C° 0 mm 5 mps 755 mmHg 81%
    23:00 -4°C° 0 mm 5 mps 755 mmHg 80%

    Tomorrow, 20 February, Wednesday

    Time Temperature Precipitation Wind Pressure Humidity
    00:00 -4°C° 0 mm 5 mps 754 mmHg 83%
    01:00 -4°C° 0 mm 5 mps 754 mmHg 86%
    02:00 -4°C° 0 mm 5 mps 753 mmHg 88%
    03:00 -4°C° 0 mm 5 mps 753 mmHg 90%
    04:00 -2°C° 0 mm 5 mps 752 mmHg 91%
    05:00 -2°C° 0 mm 5 mps 751 mmHg 93%
    06:00 -2°C° 0 mm 5 mps 751 mmHg 95%
    07:00 -1°C° 0 mm 5 mps 751 mmHg 96%
    08:00 -1°C° 0 mm 5 mps 751 mmHg 98%
    09:00 -1°C° 0 mm 5 mps 751 mmHg 98%
    10:00 0°C° 0 mm 4 mps 751 mmHg 99%
    11:00 0°C° 0 mm 4 mps 750 mmHg 99%
    12:00 0°C° 0.5 mm 4 mps 750 mmHg 99%
    13:00 0°C° 0.5 mm 4 mps 750 mmHg 99%
    14:00 +1°C° 0.5 mm 3 mps 750 mmHg 99%
    15:00 +1°C° 0.1 mm 3 mps 750 mmHg 98%
    16:00 +1°C° 0.1 mm 3 mps 750 mmHg 97%
    17:00 +1°C° 0.1 mm 3 mps 750 mmHg 96%
    18:00 0°C° 0 mm 4 mps 751 mmHg 95%
    19:00 0°C° 0 mm 4 mps 751 mmHg 93%
    20:00 0°C° 0 mm 4 mps 751 mmHg 92%
    21:00 0°C° 0 mm 4 mps 751 mmHg 90%
    22:00 -1°C° 0 mm 4 mps 751 mmHg 88%
    23:00 -1°C° 0 mm 5 mps 751 mmHg 87%

    Day after tomorrow, 21 February, Thursday

    Time Temperature Precipitation Wind Pressure Humidity
    00:00 -1°C° 0 mm 5 mps 751 mmHg 87%
    01:00 -1°C° 0 mm 5 mps 751 mmHg 87%
    02:00 -1°C° 0 mm 6 mps 750 mmHg 87%
    03:00 -1°C° 0 mm 6 mps 750 mmHg 86%
    04:00 -1°C° 0 mm 6 mps 750 mmHg 85%
    05:00 -1°C° 0 mm 6 mps 750 mmHg 84%
    06:00 -3°C° 0 mm 6 mps 750 mmHg 83%
    07:00 -4°C° 0 mm 5 mps 751 mmHg 82%
    08:00 -6°C° 0 mm 5 mps 751 mmHg 81%
    09:00 -5°C° 0 mm 5 mps 751 mmHg 79%
    10:00 -5°C° 0 mm 6 mps 751 mmHg 77%
    11:00 -4°C° 0 mm 7 mps 751 mmHg 76%
    12:00 -4°C° 0 mm 7 mps 751 mmHg 74%
    13:00 -4°C° 0 mm 6 mps 751 mmHg 73%
    14:00 -3°C° 0 mm 6 mps 752 mmHg 71%
    15:00 -4°C° 0 mm 5 mps 752 mmHg 72%
    16:00 -3°C° 0 mm 4 mps 752 mmHg 74%
    17:00 -3°C° 0 mm 4 mps 752 mmHg 75%
    18:00 -4°C° 0 mm 3 mps 752 mmHg 76%
    19:00 -5°C° 0 mm 3 mps 753 mmHg 78%
    20:00 -6°C° 0 mm 3 mps 753 mmHg 80%
    21:00 -7°C° 0 mm 3 mps 753 mmHg 81%
    22:00 -7°C° 0 mm 3 mps 754 mmHg 82%
    23:00 -7°C° 0 mm 2 mps 754 mmHg 83%

    22 February, Friday

    Time Temperature Precipitation Wind Pressure Humidity
    00:00 -7°C° 0 mm 2 mps 754 mmHg 83%
    01:00 -7°C° 0 mm 2 mps 754 mmHg 83%
    02:00 -7°C° 0 mm 2 mps 754 mmHg 83%
    03:00 -7°C° 0 mm 3 mps 754 mmHg 84%
    04:00 -7°C° 0 mm 3 mps 754 mmHg 84%
    05:00 -7°C° 0 mm 3 mps 754 mmHg 84%
    06:00 -9°C° 0 mm 4 mps 755 mmHg 84%
    07:00 -10°C° 0 mm 5 mps 755 mmHg 84%
    08:00 -10°C° 0 mm 6 mps 756 mmHg 84%
    09:00 -11°C° 0 mm 6 mps 756 mmHg 82%
    10:00 -12°C° 0 mm 7 mps 757 mmHg 81%
    11:00 -13°C° 0 mm 7 mps 757 mmHg 80%
    12:00 -12°C° 0 mm 7 mps 757 mmHg 78%
    13:00 -12°C° 0 mm 7 mps 758 mmHg 77%
    14:00 -12°C° 0 mm 7 mps 758 mmHg 75%
    15:00 -12°C° 0 mm 7 mps 758 mmHg 76%
    16:00 -12°C° 0 mm 7 mps 759 mmHg 76%
    17:00 -11°C° 0 mm 6 mps 759 mmHg 77%
    18:00 -12°C° 0 mm 6 mps 760 mmHg 78%
    19:00 -12°C° 0 mm 5 mps 760 mmHg 80%
    20:00 -13°C° 0 mm 5 mps 761 mmHg 82%
    21:00 -13°C° 0 mm 5 mps 761 mmHg 82%
    22:00 -13°C° 0 mm 5 mps 761 mmHg 81%
    23:00 -13°C° 0 mm 5 mps 761 mmHg 81%

    23 February, Saturday

    Time Temperature Precipitation Wind Pressure Humidity
    00:00 -13°C° 0 mm 5 mps 761 mmHg 81%
    01:00 -13°C° 0 mm 5 mps 761 mmHg 82%
    02:00 -12°C° 0 mm 4 mps 762 mmHg 82%
    03:00 -14°C° 0 mm 5 mps 762 mmHg 84%
    04:00 -14°C° 0 mm 5 mps 762 mmHg 85%
    05:00 -14°C° 0 mm 5 mps 762 mmHg 86%
    06:00 -14°C° 0 mm 5 mps 762 mmHg 86%
    07:00 -14°C° 0 mm 5 mps 763 mmHg 85%
    08:00 -14°C° 0 mm 5 mps 763 mmHg 85%
    09:00 -14°C° 0 mm 5 mps 763 mmHg 84%
    10:00 -13°C° 0 mm 5 mps 764 mmHg 83%
    11:00 -13°C° 0 mm 5 mps 764 mmHg 82%
    12:00 -12°C° 0 mm 5 mps 764 mmHg 80%
    13:00 -12°C° 0 mm 5 mps 763 mmHg 79%
    14:00 -11°C° 0 mm 5 mps 763 mmHg 77%
    15:00 -11°C° 0 mm 5 mps 763 mmHg 79%
    16:00 -12°C° 0 mm 5 mps 763 mmHg 81%
    17:00 -11°C° 0 mm 4 mps 763 mmHg 82%
    18:00 -11°C° 0 mm 4 mps 764 mmHg 84%
    19:00 -11°C° 0 mm 4 mps 764 mmHg 85%
    20:00 -12°C° 0 mm 4 mps 764 mmHg 87%
    21:00 -12°C° 0 mm 4 mps 764 mmHg 88%
    22:00 -12°C° 0 mm 4 mps 764 mmHg 89%
    23:00 -12°C° 0 mm 4 mps 764 mmHg 89%

    24 February, Sunday

    Time Temperature Precipitation Wind Pressure Humidity
    00:00 -14°C° 0 mm 4 mps 764 mmHg 90%
    01:00 -14°C° 0 mm 4 mps 765 mmHg 91%
    02:00 -14°C° 0 mm 4 mps 765 mmHg 92%
    03:00 -14°C° 0 mm 3 mps 765 mmHg 92%
    04:00 -14°C° 0 mm 3 mps 765 mmHg 92%
    05:00 -14°C° 0 mm 3 mps 765 mmHg 93%
    06:00 -14°C° 0 mm 3 mps 765 mmHg 92%
    07:00 -13°C° 0 mm 3 mps 765 mmHg 92%
    08:00 -14°C° 0 mm 4 mps 766 mmHg 92%
    09:00 -12°C° 0 mm 4 mps 766 mmHg 90%
    10:00 -12°C° 0 mm 4 mps 766 mmHg 89%
    11:00 -11°C° 0 mm 4 mps 766 mmHg 87%
    12:00 -11°C° 0 mm 4 mps 766 mmHg 86%
    13:00 -11°C° 0 mm 4 mps 766 mmHg 85%
    14:00 -11°C° 0 mm 5 mps 766 mmHg 85%
    15:00 -11°C° 0 mm 4 mps 766 mmHg 85%
    16:00 -11°C° 0 mm 4 mps 766 mmHg 86%
    17:00 -11°C° 0 mm 4 mps 766 mmHg 87%
    18:00 -12°C° 0 mm 3 mps 766 mmHg 88%
    19:00 -12°C° 0 mm 3 mps 767 mmHg 89%
    20:00 -13°C° 0 mm 3 mps 767 mmHg 90%
    21:00 -13°C° 0 mm 3 mps 767 mmHg 90%
    22:00 -13°C° 0 mm 2 mps 767 mmHg 90%
    23:00 -13°C° 0 mm 2 mps 767 mmHg 91%
    Show more